Location: Leedale
(52.5833°N, 114.4833°W)
Time: 08:12:52
(UTC+00:00)

Envisat - Pass Details

Date: 17 August 2024
Orbit: 762 x 764 km, 98.3° (Epoch: 08 September)

Event Time Altitude Azimuth Distance (km) Brightness Sun altitude
Rises 10:42:31 0° 17° (NNE) 3,241 7.4 -13.7°
Reaches altitude 10° 10:44:53 10° 21° (NNE) 2,310 6.6 -13.4°
Maximum altitude 10:49:54 59° 101° (E) 880 3.5 -12.9°
Drops below altitude 10° 10:54:54 10° 181° (S) 2,292 5.1 -12.3°
Enters shadow 10:55:42 - 183° (S) 2,611 5.3 -12.2°
